User: anonymous
Location: Griffin Ranch
(33.6186°N, 110.6622°W)
Time: 16:55:46
(UTC-07:00)
Language:

Cosmos 1812 - Orbit

View from above orbital plane
View from above orbital plane
View from above satellite
View from above satellite

Ground track
Ground track

The orbit data is extracted from the following two-line orbital elements,

1 17295U 87003A   14233.43883984  .00001197  00000-0  72983-4 0  3942
2 17295 082.5220 076.3372 0005297 085.4686 343.9749 15.09463106503139
Epoch (UTC): 21 August 2014 10:31:55
Eccentricity: 0.0005297
inclination: 82.5220°
perigee height: 534 km
apogee height: 541 km
right ascension of ascending node: 76.3372°
argument of perigee: 85.4686°
revolutions per day: 15.09463106
mean anomaly at epoch: 343.9749°
orbit number at epoch: 50313

The dashed part of the orbit path shows where the satellite is in the earth's shadow,  

DLR